Find Starlink 4380

NORAD ID: 53650 Int'l Des: 2022-105 Owner: SPXS Country: US Constellation: starlink operational
LEOCIRCULARRETROGRADESSO

現在のビュー

3D地球を読み込み中...

About Starlink 4380

Starlink 4380 (NORAD 53650) is a starlink constellation satellite (v1.5) launched Aug 31, 2022 by SPXS of US. It operates in LEO, CIRCULAR, RETROGRADE, SSO orbit with a mass of 300.00 kg.

次回通過

Passes for default location (London). Set your location on the main map for personalized predictions.

高度履歴

Loading altitude history...

軌道要素

1 53650U 22105C 26265.11621877 -.00000015 00000-0 28732-5 0 9997
2 53650 97.2854 138.8465 0002049 85.1775 274.9687 15.05654294222784
Epoch: Sep 22, 2026 • Age: 21 hours

現在のステータス

高度 553.7 km
遠地点 / 近地点 N/A
速度 7.58 km/s
衛星直下点 -7.07°S, 146.33°E
打ち上げ日 Aug 31, 2022
運用期間 4 years
タイプ internet

技術仕様

分類 Payload
質量 300.00 kg
乾燥質量 290.00 kg
長さ 0.20 m
スパン 9.00 m
形状 ? Box + pan
製造者 SPXS
バスタイプ Starlink
フェーズステータス In Orbit
所有者/国 SPXS/US

Most Searched